Location: Cedar Brake
(32.2526°N, 97.8459°W)
Time: 17:11:50
(UTC+00:00)

SKYMED 3 - Pass Details

Date: 22 April 2026
Orbit: 535 x 558 km, 97.8° (Epoch: 9 May)

Event Time Altitude Azimuth Distance (km) Brightness Sun altitude
Rises 02:48:51 0° 9° (N) 2,689 8.1 -21.0°
Reaches altitude 10° 02:50:58 10° 8° (N) 1,796 7.2 -21.4°
Maximum altitude 02:54:50 76° 284° (WNW) 558 4.3 -22.1°
Enters shadow 02:56:05 41° 207° (SSW) 784 5.0 -22.3°
